WetterOnline ( http://www.wetteronline.de )

Wetter aktuell Lauterbach

Aktuelles Wetter: Neu-Ulrichstein (350m)

6-stündlich | Neueste Meldungen
Ortszeit Temperatur Wetter
Sa, 24.02. 13:00 -1.6° C wolkig
Sa, 24.02. 7:00 -6.5° C fast wolkenlos
Sa, 24.02. 1:00 -6.0° C wolkig
Fr, 23.02. 19:00 -3.0° C wolkenlos
Fr, 23.02. 13:00 -1.6° C wolkenlos
Fr, 23.02. 7:00 -5.2° C wolkenlos
Fr, 23.02. 1:00 -3.5° C wolkenlos
Do, 22.02. 19:00 -1.5° C wolkenlos
Ortszeit Temperatur Wetter
Sa, 24.02. 13:00 -1.6° C wolkig
Sa, 24.02. 12:50 -1.6° C bedeckt
Sa, 24.02. 12:40 -1.8° C bedeckt
Sa, 24.02. 12:30 -1.8° C bedeckt
Sa, 24.02. 12:20 -1.8° C bedeckt
Sa, 24.02. 12:10 -1.7° C bedeckt
Sa, 24.02. 12:00 -1.8° C wolkenlos
Sa, 24.02. 11:30 -2.8° C wolkenlos
Sa, 24.02. 11:00 -3.1° C fast wolkenlos
Sa, 24.02. 10:30 -3.4° C fast wolkenlos
Sa, 24.02. 10:00 -3.9° C wolkenlos
Ortszeit Relative Feuchte Sichtweite
Sa, 24.02. 13:00 60% 18 km
Sa, 24.02. 7:00 54% 12 km
Sa, 24.02. 1:00 61% 12 km
Fr, 23.02. 19:00 48% 17 km
Fr, 23.02. 13:00 48% 17 km
Fr, 23.02. 7:00 63% 23 km
Fr, 23.02. 1:00 66% 28 km
Do, 22.02. 19:00 57% 28 km
Ortszeit Relative Feuchte Sichtweite
Sa, 24.02. 13:00 60% 18 km
Sa, 24.02. 12:50 60% -
Sa, 24.02. 12:40 61% -
Sa, 24.02. 12:30 59% 18 km
Sa, 24.02. 12:20 59% -
Sa, 24.02. 12:10 58% -
Sa, 24.02. 12:00 55% 13 km
Sa, 24.02. 11:30 54% 12 km
Sa, 24.02. 11:00 52% 11 km
Sa, 24.02. 10:30 47% 14 km
Sa, 24.02. 10:00 46% 19 km
Ortszeit Niederschlagsmenge Niederschlagsart
Sa, 24.02. 13:00 0.0 l/m2 in 6 Std. -
Sa, 24.02. 7:00 0.0 l/m2 in 12 Std. -
Sa, 24.02. 1:00 0.0 l/m2 in 6 Std. -
Fr, 23.02. 19:00 0.0 l/m2 in 12 Std. -
Fr, 23.02. 13:00 0.0 l/m2 in 6 Std. -
Fr, 23.02. 7:00 0.0 l/m2 in 12 Std. -
Fr, 23.02. 1:00 0.0 l/m2 in 6 Std. -
Do, 22.02. 19:00 0.0 l/m2 in 12 Std. -
Ortszeit Niederschlagsmenge Niederschlagsart
Sa, 24.02. 13:00 0.0 l/m2 in 1 Std. -
Sa, 24.02. 12:50 keine Meldung -
Sa, 24.02. 12:40 keine Meldung -
Sa, 24.02. 12:30 0.0 l/m2 in 1 Std. -
Sa, 24.02. 12:20 keine Meldung -
Sa, 24.02. 12:10 keine Meldung -
Sa, 24.02. 12:00 0.0 l/m2 in 1 Std. -
Sa, 24.02. 11:30 0.0 l/m2 in 1 Std. -
Sa, 24.02. 11:00 0.0 l/m2 in 1 Std. -
Sa, 24.02. 10:30 0.0 l/m2 in 1 Std. -
Sa, 24.02. 10:00 0.0 l/m2 in 1 Std. -
Ortszeit Stärke Spitze Richtung
km/h Bft. km/h Grad Sektor
Sa, 24.02. 13:00 39 6 57 50° NO
Sa, 24.02. 7:00 24 4 41 40° NO
Sa, 24.02. 1:00 25 4 47 50° NO
Fr, 23.02. 19:00 20 4 46 40° NO
Fr, 23.02. 13:00 29 5 61 40° NO
Fr, 23.02. 7:00 22 4 41 40° NO
Fr, 23.02. 1:00 22 4 43 40° NO
Do, 22.02. 19:00 29 5 54 40° NO
Ortszeit Stärke Spitze Richtung
km/h Bft. km/h Grad Sektor
Sa, 24.02. 13:00 39 6 57 50° NO
Sa, 24.02. 12:50 39 6 - 50° NO
Sa, 24.02. 12:40 43 6 - 60° NO
Sa, 24.02. 12:30 37 5 56 60° NO
Sa, 24.02. 12:20 37 5 - 60° NO
Sa, 24.02. 12:10 36 5 - 50° NO
Sa, 24.02. 12:00 31 5 56 50° NO
Sa, 24.02. 11:30 35 5 50 60° NO
Sa, 24.02. 11:00 32 5 50 60° NO
Sa, 24.02. 10:30 32 5 50 60° NO
Sa, 24.02. 10:00 31 5 46 50° NO
Ortszeit Untergrenze Bedeckung Gattung
total tief tief mittel hoch
Sa, 24.02. 13:00 - 8/8 - - - -
Sa, 24.02. 7:00 9000 m 1/8 0/8 - - -
Sa, 24.02. 1:00 8100 m 8/8 0/8 - - -
Fr, 23.02. 19:00 - 0/8 0/8 - - -
Fr, 23.02. 13:00 - 0/8 0/8 - - -
Fr, 23.02. 7:00 - 0/8 0/8 - - -
Fr, 23.02. 1:00 - 0/8 0/8 - - -
Do, 22.02. 19:00 - 0/8 0/8 - - -
Ortszeit Bedeckungsgrad in Achtel und Wolkenuntergrenze
Sa, 24.02. 13:00 8
Sa, 24.02. 12:50 9 9 9
Sa, 24.02. 12:40 9 9 9
Sa, 24.02. 12:30 9 9 9
Sa, 24.02. 12:20 9 9 9
Sa, 24.02. 12:10 9 9 9
Sa, 24.02. 12:00 1(840m)
Sa, 24.02. 11:30 keine Wolken
Sa, 24.02. 11:00 1(9000m)
Sa, 24.02. 10:30 2(8700m)
Sa, 24.02. 10:00 keine Wolken
Ortszeit Luftdruck NN (hPa) Tendenz (hPa in 3 Std.)
Sa, 24.02. 13:00 1026 0,0
Sa, 24.02. 7:00 1026 + 1,0
Sa, 24.02. 1:00 1024 + 0,2
Fr, 23.02. 19:00 1023 + 1,0
Fr, 23.02. 13:00 1023 - 0,2
Fr, 23.02. 7:00 1023 + 0,4
Fr, 23.02. 1:00 1023 - 0,4
Do, 22.02. 19:00 1022 + 0,3
Ortszeit Luftdruck NN (hPa) Tendenz (hPa in 3 Std.)
Sa, 24.02. 13:00 1026 0,0
Sa, 24.02. 12:50 1026 keine Meldung
Sa, 24.02. 12:40 1026 keine Meldung
Sa, 24.02. 12:30 1026 0,0
Sa, 24.02. 12:20 1026 keine Meldung
Sa, 24.02. 12:10 1026 keine Meldung
Sa, 24.02. 12:00 1027 + 0,5
Sa, 24.02. 11:30 1027 + 0,7
Sa, 24.02. 11:00 1027 + 0,9
Sa, 24.02. 10:30 1027 + 1,2
Sa, 24.02. 10:00 1027 + 1,6
Ortszeit Schneehöhe (cm)
Sa, 24.02. 13:00 2
Sa, 24.02. 7:00 1
Sa, 24.02. 1:00 1
Fr, 23.02. 19:00 1
Fr, 23.02. 13:00 2
Fr, 23.02. 7:00 1
Fr, 23.02. 1:00 1
Do, 22.02. 19:00 1
Ortszeit Schneehöhe (cm)
Sa, 24.02. 13:00 2
Sa, 24.02. 12:50 2
Sa, 24.02. 12:40 2
Sa, 24.02. 12:30 2
Sa, 24.02. 12:20 2
Sa, 24.02. 12:10 2
Sa, 24.02. 12:00 2
Sa, 24.02. 11:30 2
Sa, 24.02. 11:00 2
Sa, 24.02. 10:30 2
Sa, 24.02. 10:00 1
Link zu dieser Seite / Seite empfehlen

Das Wetter in ...